Total_Precipitation_Accumulation
0.24 0.24 0.27 0.25 0.25 0.26 0.29 0.39 0.55 0.39 0.10 0.03 0.05 0.06 0.09 0.13 0.17 0.18 0.17 0.20 0.27 0.35 0.38 0.42 0.47 0.57 0.90 1.57 2.53 3.21 3.10 2.45 1.75 1.40 1.44 1.73 2.18 2.63
0.29 0.30 0.32 0.32 0.32 0.32 0.33 0.34 0.42 0.50 0.31 0.06 0.06 0.07 0.10 0.12 0.17 0.18 0.19 0.21 0.23 0.28 0.34 0.37 0.41 0.51 0.67 0.98 1.57 2.50 3.10 3.04 2.46 1.89 1.70 1.83 2.07 2.54
0.31 0.35 0.37 0.36 0.37 0.34 0.36 0.36 0.36 0.42 0.42 0.11 0.04 0.07 0.13 0.16 0.18 0.19 0.20 0.18 0.17 0.20 0.27 0.35 0.40 0.48 0.61 0.79 1.07 1.66 2.54 3.06 3.05 2.58 2.19 2.03 2.02 2.18
0.46 0.45 0.46 0.47 0.49 0.47 0.48 0.44 0.39 0.37 0.43 0.28 0.09 0.07 0.14 0.22 0.28 0.27 0.23 0.19 0.16 0.17 0.22 0.29 0.37 0.44 0.55 0.69 0.87 1.16 1.75 2.49 2.97 2.94 2.55 2.20 2.05 2.13
0.74 0.73 0.71 0.68 0.69 0.67 0.66 0.58 0.47 0.38 0.38 0.36 0.20 0.12 0.16 0.25 0.35 0.36 0.31 0.24 0.18 0.19 0.22 0.26 0.32 0.38 0.46 0.57 0.72 0.89 1.15 1.58 2.20 2.75 2.93 2.65 2.29 2.15
0.85 0.88 0.93 0.96 0.97 0.93 0.90 0.75 0.60 0.51 0.45 0.45 0.35 0.23 0.20 0.27 0.45 0.49 0.45 0.35 0.26 0.21 0.24 0.25 0.31 0.37 0.39 0.42 0.47 0.61 0.87 1.26 1.71 2.28 2.82 2.95 2.62 2.32
0.60 0.64 0.75 0.92 1.06 1.14 1.17 1.03 0.89 0.83 0.73 0.65 0.54 0.43 0.34 0.39 0.53 0.59 0.64 0.57 0.47 0.36 0.29 0.24 0.25 0.26 0.27 0.32 0.40 0.51 0.70 0.94 1.26 1.71 2.29 2.80 2.85 2.63
0.41 0.42 0.46 0.63 0.76 0.88 1.03 1.09 1.15 1.22 1.15 0.99 0.81 0.66 0.49 0.45 0.54 0.71 0.79 0.85 0.78 0.54 0.46 0.38 0.33 0.30 0.27 0.25 0.31 0.41 0.58 0.81 1.06 1.35 1.72 2.21 2.63 2.75
0.25 0.26 0.27 0.35 0.50 0.54 0.64 0.78 0.92 1.10 1.23 1.21 1.14 0.87 0.63 0.53 0.64 0.81 0.87 0.94 0.85 0.72 0.73 0.71 0.56 0.45 0.37 0.35 0.40 0.42 0.51 0.67 0.86 1.08 1.33 1.66 2.09 2.51
0.20 0.18 0.16 0.21 0.37 0.48 0.58 0.60 0.61 0.77 1.02 1.19 1.29 1.11 0.85 0.75 0.89 1.07 1.17 1.16 1.00 0.93 0.97 1.01 0.77 0.62 0.56 0.51 0.49 0.44 0.46 0.52 0.67 0.84 1.04 1.27 1.58 2.01
0.17 0.18 0.17 0.16 0.34 0.50 0.51 0.46 0.42 0.52 0.67 0.92 1.12 1.15 1.09 1.07 1.14 1.35 1.45 1.49 1.38 1.16 1.12 1.18 1.02 0.81 0.75 0.74 0.67 0.55 0.46 0.47 0.54 0.67 0.83 1.00 1.21 1.59
0.15 0.15 0.24 0.29 0.39 0.44 0.42 0.43 0.48 0.45 0.45 0.51 0.59 0.68 0.73 0.75 0.95 1.19 1.33 1.45 1.47 1.49 1.29 1.23 1.27 1.19 1.21 0.97 0.78 0.56 0.47 0.47 0.52 0.57 0.65 0.76 0.94 1.15
0.17 0.18 0.20 0.32 0.36 0.37 0.40 0.42 0.54 0.49 0.40 0.45 0.49 0.51 0.57 0.63 0.70 0.91 1.15 1.33 1.47 1.49 1.32 1.34 1.53 1.37 1.32 1.17 0.94 0.71 0.50 0.43 0.45 0.56 0.63 0.71 0.81 0.88
0.21 0.15 0.16 0.23 0.28 0.34 0.36 0.41 0.44 0.44 0.42 0.42 0.41 0.40 0.46 0.56 0.65 0.76 0.92 1.07 1.19 1.27 1.20 1.30 1.63 1.49 1.33 1.12 0.97 0.89 0.69 0.53 0.45 0.47 0.53 0.74 0.86 0.90
0.33 0.30 0.24 0.26 0.27 0.22 0.24 0.32 0.34 0.33 0.40 0.42 0.36 0.32 0.37 0.49 0.56 0.66 0.74 0.84 0.95 1.03 1.12 1.18 1.41 1.52 1.45 1.22 0.91 0.84 0.85 0.78 0.59 0.52 0.53 0.57 0.64 0.73
0.36 0.31 0.27 0.25 0.20 0.16 0.16 0.17 0.19 0.25 0.34 0.38 0.34 0.30 0.31 0.39 0.50 0.61 0.74 0.80 0.90 0.94 1.06 1.18 1.34 1.60 1.59 1.19 0.99 0.87 0.78 0.87 0.76 0.57 0.54 0.56 0.57 0.54
0.42 0.38 0.30 0.23 0.22 0.18 0.14 0.12 0.13 0.18 0.25 0.29 0.31 0.33 0.35 0.39 0.45 0.55 0.74 0.86 0.95 0.91 1.04 1.27 1.39 1.55 1.62 1.49 1.30 0.98 0.78 0.71 0.71 0.61 0.57 0.65 0.70 0.63
0.45 0.41 0.26 0.19 0.18 0.17 0.17 0.16 0.15 0.16 0.19 0.26 0.31 0.33 0.38 0.42 0.47 0.53 0.68 0.86 0.92 0.88 0.97 1.20 1.43 1.66 1.80 1.77 1.53 1.14 0.90 0.76 0.75 0.70 0.60 0.64 0.77 0.80
0.31 0.25 0.18 0.17 0.17 0.17 0.17 0.17 0.15 0.13 0.17 0.24 0.29 0.31 0.35 0.42 0.47 0.53 0.62 0.74 0.82 0.86 0.93 1.09 1.38 1.65 1.76 1.75 1.79 1.46 1.13 0.93 0.90 0.90 0.78 0.62 0.64 0.73
0.19 0.20 0.18 0.16 0.16 0.18 0.19 0.19 0.17 0.16 0.18 0.22 0.24 0.27 0.34 0.42 0.46 0.49 0.56 0.69 0.78 0.85 0.91 1.01 1.27 1.53 1.63 1.50 1.55 1.63 1.55 1.23 1.02 1.01 0.93 0.78 0.73 0.86
0.15 0.16 0.16 0.17 0.18 0.18 0.19 0.19 0.21 0.21 0.20 0.22 0.23 0.24 0.29 0.39 0.43 0.42 0.48 0.58 0.72 0.81 0.85 0.89 1.08 1.33 1.53 1.49 1.39 1.40 1.61 1.65 1.27 1.03 0.94 0.94 0.93 0.97
0.16 0.17 0.17 0.17 0.19 0.21 0.22 0.22 0.22 0.21 0.19 0.21 0.21 0.21 0.24 0.32 0.37 0.37 0.44 0.53 0.61 0.68 0.75 0.81 0.96 1.28 1.58 1.61 1.43 1.34 1.51 1.73 1.76 1.43 1.10 0.92 0.90 0.91
0.23 0.23 0.21 0.20 0.19 0.21 0.23 0.23 0.23 0.20 0.18 0.18 0.19 0.19 0.22 0.26 0.28 0.32 0.38 0.45 0.53 0.60 0.70 0.82 0.95 1.19 1.48 1.59 1.53 1.40 1.40 1.52 1.63 1.57 1.50 1.19 0.78 0.57